Weather reports worldwide

Advertisment
Trapani/Birgi, Italy (16429): temperature & dewpoint: 19.09.2020 02:00:00 - 25.09.2020 02:00:00 (CEST)Trapani/Birgi, Italy (16429): wind speed: 19.09.2020 02:00:00 - 25.09.2020 02:00:00 (CEST)Trapani/Birgi, Italy (16429): wind direction: 19.09.2020 02:00:00 - 25.09.2020 02:00:00 (CEST)Trapani/Birgi, Italy (16429): reduced air pressure: 19.09.2020 02:00:00 - 25.09.2020 02:00:00 (CEST)Trapani/Birgi, Italy (16429): visibility: 19.09.2020 02:00:00 - 25.09.2020 02:00:00 (CEST)Trapani/Birgi, Italy (16429): sunshine duration: 19.09.2020 02:00:00 - 25.09.2020 02:00:00 (CEST)
Date & Time tt [°C] td [°C] ff [km/h] ff [kn] dd ppp [hPa] vv [km] sd [min]
25.09.2020 02:00:00 23,8 20,9 15 8 S 1013,5 12 -
25.09.2020 01:00:00 23,8 20,9 13 7 S 1013,6 12 -
25.09.2020 00:00:00 24,0 21,3 11 6 SSE 1014,3 12 -
24.09.2020 23:00:00 23,8 21,3 11 6 SSE 1014,6 12 -
24.09.2020 22:00:00 24,0 21,7 11 6 SE 1014,7 12 -
24.09.2020 21:00:00 25,0 22,5 8 4 SE 1015,1 10 -
24.09.2020 20:00:00 25,4 20,2 5 3 SSE 1014,6 12 -
24.09.2020 19:00:00 27,0 22,2 9 5 S 1014,9 16 6
24.09.2020 18:00:00 28,2 20,5 15 8 SW 1015,0 16 60
24.09.2020 17:00:00 28,4 23,8 18 10 SW 1015,4 16 60
24.09.2020 16:00:00 28,8 23,2 13 7 SW 1015,5 16 60
24.09.2020 15:00:00 28,6 24,0 15 8 SW 1015,5 16 54
24.09.2020 14:00:00 28,6 23,7 22 12 SW 1015,8 16 54
24.09.2020 13:00:00 28,0 24,0 21 11 SW 1015,9 16 54
24.09.2020 12:00:00 28,0 22,9 18 10 SW 1015,9 16 60
24.09.2020 11:00:00 27,2 21,2 16 9 SW 1015,8 20 60
24.09.2020 10:00:00 26,2 21,2 11 6 S 1015,5 20 54
24.09.2020 09:00:00 23,0 16,3 13 7 SE 1015,1 20 60
24.09.2020 08:00:00 19,8 15,2 13 7 SE 1015,2 20 6
24.09.2020 07:00:00 19,0 15,5 9 5 SE 1014,9 16 -
24.09.2020 06:00:00 20,0 17,2 9 5 SE 1014,7 14 -
24.09.2020 05:00:00 20,8 18,5 11 6 ESE 1014,3 14 -
24.09.2020 04:00:00 21,0 18,8 11 6 ESE 1014,9 14 -
24.09.2020 03:00:00 20,8 18,9 9 5 SE 1014,9 14 -
24.09.2020 02:00:00 21,8 19,7 8 4 ESE 1014,9 14 -
24.09.2020 01:00:00 22,0 19,9 5 3 ESE 1014,9 14 -
24.09.2020 00:00:00 22,8 20,9 5 3 ESE 1015,1 14 -
23.09.2020 23:00:00 23,6 21,5 4 2 ESE 1015,0 14 -
23.09.2020 22:00:00 24,4 21,1 8 4 N 1014,8 14 -
23.09.2020 21:00:00 24,8 21,7 4 2 N 1014,4 14 -
23.09.2020 20:00:00 25,8 21,5 8 4 N 1014,0 14 -
23.09.2020 19:00:00 26,2 21,4 11 6 W 1013,7 20 0
23.09.2020 18:00:00 27,0 21,1 15 8 NW 1013,9 20 18
23.09.2020 17:00:00 27,6 21,2 11 6 NW 1013,6 20 18
23.09.2020 16:00:00 28,0 22,7 15 8 NNW 1014,1 20 60
23.09.2020 15:00:00 28,0 22,7 15 8 NNW 1014,0 20 60
23.09.2020 14:00:00 28,0 23,8 18 10 NNW 1014,2 20 48
23.09.2020 13:00:00 28,0 24,0 21 11 W 1014,2 16 48
23.09.2020 12:00:00 28,2 23,1 13 7 WSW 1014,5 20 48
23.09.2020 11:00:00 27,8 22,3 8 4 SSW 1015,0 20 18
23.09.2020 10:00:00 26,2 22,5 16 9 S 1014,6 18 0
23.09.2020 09:00:00 24,6 21,3 5 3 SSW 1014,4 20 42
23.09.2020 08:00:00 23,2 20,5 4 2 N 1014,1 20 0
23.09.2020 07:00:00 23,0 20,3 2 1 S 1013,3 12 -
23.09.2020 06:00:00 23,8 21,1 9 5 SSE 1013,5 12 -
23.09.2020 05:00:00 24,8 22,1 11 6 SSE 1013,9 12 -
23.09.2020 04:00:00 25,0 22,3 13 7 SSE 1014,4 12 -
23.09.2020 03:00:00 25,0 22,3 15 8 SSE 1014,5 12 -
23.09.2020 02:00:00 25,0 22,5 16 9 SSE 1014,7 12 -
23.09.2020 01:00:00 25,2 23,1 13 7 S 1015,2 12 -
23.09.2020 00:00:00 25,4 23,3 9 5 S 1015,4 12 -
22.09.2020 23:00:00 25,4 22,9 8 4 S 1015,7 12 -
22.09.2020 22:00:00 25,2 22,5 8 4 SW 1015,1 12 -
22.09.2020 21:00:00 26,0 22,9 13 7 S 1015,1 12 -
22.09.2020 20:00:00 26,2 22,1 16 9 S 1014,7 14 -
22.09.2020 19:00:00 27,0 22,8 16 9 S 1014,5 14 0
22.09.2020 18:00:00 28,0 22,7 16 9 S 1014,8 14 12
22.09.2020 17:00:00 28,2 23,3 18 10 SSW 1015,0 16 30
22.09.2020 16:00:00 28,0 20,8 18 10 SSW 1015,6 16 36
22.09.2020 15:00:00 28,0 21,5 18 10 SSW 1015,6 16 60
22.09.2020 14:00:00 28,0 20,8 24 13 SSW 1016,2 16 60
22.09.2020 13:00:00 28,2 19,7 21 11 SSW 1016,2 16 60
22.09.2020 12:00:00 28,0 22,0 22 12 S 1016,1 16 60
22.09.2020 11:00:00 27,0 22,2 24 13 S 1016,1 16 48
22.09.2020 10:00:00 25,0 22,1 16 9 S 1016,0 18 0
22.09.2020 09:00:00 23,8 20,9 13 7 SSE 1016,2 16 0
22.09.2020 08:00:00 24,0 21,3 11 6 SSE 1016,3 12 0
22.09.2020 07:00:00 23,8 21,7 11 6 ESE 1016,0 10 -
22.09.2020 06:00:00 23,8 21,3 15 8 ESE 1015,1 12 -
22.09.2020 05:00:00 24,0 21,5 15 8 SE 1015,9 12 -
22.09.2020 04:00:00 - - - - - - - -
22.09.2020 03:00:00 24,0 21,5 8 4 ESE 1016,6 12 -
22.09.2020 02:00:00 24,2 22,1 8 4 ESE 1016,8 12 -
22.09.2020 01:00:00 24,4 22,1 5 3 SE 1016,6 12 -
22.09.2020 00:00:00 24,4 22,3 8 4 SE 1017,0 15 -
21.09.2020 23:00:00 25,0 22,9 4 2 SSE 1016,9 15 -
21.09.2020 22:00:00 25,2 23,1 5 3 SW 1016,9 15 -
21.09.2020 21:00:00 25,8 23,3 4 2 SSW 1016,3 15 -
21.09.2020 20:00:00 25,8 23,3 4 2 W 1016,0 15 0
21.09.2020 19:00:00 27,0 23,0 8 4 W 1016,2 20 0
21.09.2020 18:00:00 28,0 23,2 9 5 W 1016,1 20 60
21.09.2020 17:00:00 28,2 22,9 18 10 W 1016,4 20 60
21.09.2020 16:00:00 28,8 22,8 18 10 W 1016,8 20 60
21.09.2020 15:00:00 28,8 22,5 16 9 W 1017,0 22 60
21.09.2020 14:00:00 29,0 22,0 16 9 W 1017,1 22 60
21.09.2020 13:00:00 28,8 22,1 18 10 W 1017,1 20 60
21.09.2020 12:00:00 28,0 22,2 16 9 W 1017,1 20 60
21.09.2020 11:00:00 27,0 20,3 4 2 ENE 1017,1 18 60
21.09.2020 10:00:00 25,8 22,3 8 4 SSE 1017,0 16 24
21.09.2020 09:00:00 23,8 20,7 8 4 SE 1017,0 12 24
21.09.2020 08:00:00 23,0 20,2 8 4 SSE 1016,3 10 -
21.09.2020 07:00:00 23,0 20,3 8 4 SSE 1015,8 8 -
21.09.2020 06:00:00 23,0 20,3 4 2 N 1015,5 10 -
21.09.2020 05:00:00 23,0 20,3 5 3 ESE 1015,9 10 -
21.09.2020 04:00:00 24,2 21,7 4 2 N 1015,8 10 -
21.09.2020 03:00:00 24,2 21,5 4 2 N 1016,2 10 -
21.09.2020 02:00:00 25,0 22,3 9 5 WNW 1016,7 10 -
21.09.2020 01:00:00 25,0 22,5 8 4 SE 1016,7 8 -
21.09.2020 00:00:00 25,0 22,5 8 4 SSE 1016,5 8 -
20.09.2020 23:00:00 24,8 22,7 9 5 S 1016,1 10 -
20.09.2020 22:00:00 25,0 23,2 5 3 S 1016,1 12 -
20.09.2020 21:00:00 25,0 22,9 9 5 S 1016,1 12 -
20.09.2020 20:00:00 26,0 23,9 8 4 SSW 1014,9 12 0
20.09.2020 19:00:00 27,2 24,3 11 6 SW 1015,3 20 0
20.09.2020 18:00:00 28,2 22,2 8 4 WSW 1015,2 25 60
20.09.2020 17:00:00 28,2 23,1 9 5 WSW 1016,3 25 36
20.09.2020 16:00:00 28,2 21,2 15 8 WSW 1015,1 25 30
20.09.2020 15:00:00 28,2 22,2 15 8 WSW 1016,0 25 18
20.09.2020 14:00:00 28,8 22,8 16 9 W 1016,2 25 54
20.09.2020 13:00:00 29,0 19,9 15 8 WNW 1016,1 25 60
20.09.2020 12:00:00 28,8 18,0 5 3 E 1015,9 25 48
20.09.2020 11:00:00 26,8 20,9 11 6 SW 1016,9 20 36
20.09.2020 10:00:00 25,4 21,7 13 7 WSW 1016,9 20 42
20.09.2020 09:00:00 23,4 20,3 5 3 S 1016,1 20 42
20.09.2020 08:00:00 21,2 18,6 8 4 SE 1015,9 20 0
20.09.2020 07:00:00 22,0 19,2 8 4 SE 1015,6 20 -
20.09.2020 06:00:00 22,0 19,4 5 3 SE 1015,9 12 -
20.09.2020 05:00:00 22,0 19,4 8 4 SE 1016,1 12 -
20.09.2020 04:00:00 23,0 20,3 0 0 N 1016,1 12 -
20.09.2020 03:00:00 - - - - - - - -
20.09.2020 02:00:00 24,0 21,9 4 2 E 1016,4 12 -
20.09.2020 01:00:00 25,0 22,9 4 2 N 1016,7 12 -
20.09.2020 00:00:00 25,6 22,9 4 2 N 1017,1 12 -
19.09.2020 23:00:00 26,0 22,9 8 4 NNW 1017,1 12 -
19.09.2020 22:00:00 25,8 23,1 4 2 N 1017,1 12 -
19.09.2020 21:00:00 26,0 23,3 4 2 NNE 1016,6 12 -
19.09.2020 20:00:00 27,0 23,2 8 4 N 1016,2 12 -
19.09.2020 19:00:00 27,6 23,2 13 7 N 1016,4 22 24
19.09.2020 18:00:00 28,0 23,2 13 7 N 1016,5 22 60
19.09.2020 17:00:00 28,0 22,0 18 10 N 1016,5 25 60
19.09.2020 16:00:00 28,0 22,0 18 10 N 1016,8 25 60
19.09.2020 15:00:00 28,0 22,0 18 10 N 1017,1 25 60
19.09.2020 14:00:00 27,8 21,8 18 10 N 1017,2 25 60
19.09.2020 13:00:00 27,4 21,4 16 9 NNW 1018,1 25 60
19.09.2020 12:00:00 27,0 21,1 16 9 NNW 1018,5 22 60
19.09.2020 11:00:00 26,8 21,3 15 8 NNW 1018,7 22 60
19.09.2020 10:00:00 25,0 20,7 9 5 NW 1018,3 20 60
19.09.2020 09:00:00 22,8 19,8 4 2 SSE 1017,7 20 24
19.09.2020 08:00:00 21,2 18,4 5 3 SE 1017,4 20 0
19.09.2020 07:00:00 21,0 18,2 8 4 SSE 1017,4 14 -
19.09.2020 06:00:00 21,0 18,2 4 2 SE 1016,8 14 -
19.09.2020 05:00:00 21,8 19,0 4 2 ESE 1016,9 14 -
19.09.2020 04:00:00 22,0 19,4 4 2 ESE 1016,2 14 -
19.09.2020 03:00:00 22,0 19,5 2 1 ESE 1016,9 14 -
19.09.2020 02:00:00 22,6 20,5 5 3 ESE 1017,0 14 -

tt = temperature
td = dewpoint
ff = wind speed
dd = wind direction
ppp = reduced air pressure
vv = visibility
sd = sunshine duration

Next stations